Retour au catalogue

STARLINK-32835

ActifCommunicationsVLEO
NORAD 63051·PAYLOAD·🇺🇸 United States

Lancé Feb 18, 2025 depuis Cape Canaveral Space Force Station

Loading…

Prochains Passages (prochaines 24 heures)

TLE

FraisSource: CelesTrak SupGP

Époque: Sep 14, 2026, 22:50 UTC

1 63051C 25034Y   26257.95187500  .00020873  00000+0  61731-3 0  2573
2 63051  53.1580 107.8165 0001260  86.7326 143.2049 15.34349343    11

Suivez STARLINK-32835 en temps réel avec AllMySat

Download on the App Store